Regional Weather Roundup
Issued by NWS Little Rock, AR

Home | Current Version | Previous Version | Text Only | Print | Product List | Glossary On
Versions: 1 2 3 4 5 6 7 8 9 10 11 12 13 14 15 16 17 18 19 20 21 22 23 24 25 26 27 28 29 30 31 32 33 34 35 36 37 38 39 40 41 42 43 44 45 46 47 48 49 50
000
ASUS44 KLZK 241405
RWRLZK

WEATHER ROUNDUP FOR ARKANSAS
NATIONAL WEATHER SERVICE LITTLE ROCK AR
800 AM CST MON NOV 24 2014

NOTE: "FAIR" INDICATES FEW OR NO CLOUDS BELOW 12,000 FEET WITH NO
SIGNIFICANT WEATHER AND/OR OBSTRUCTIONS TO VISIBILITY.

ARZ001-003-010-029-241500-
NORTHWEST ARKANSAS

CITY           SKY/WX    TMP DP  RH WIND       PRES   REMARKS
FAYETTEVILLE   CLEAR     38  31  76 SW13      29.84R
FORT SMITH     CLEAR     42  34  73 W9        29.89R
HARRISON       CLEAR     39  32  76 W12G20    29.77R
BENTONVILLE    CLEAR     37  28  70 W9        29.83R
ROGERS         CLEAR     37  30  75 W12       29.82R
SILOAM SPGS    CLEAR     37  27  65 W13       29.85R
HIGHFILL       CLEAR     37  32  82 W12       29.82R
SPRINGDALE     CLEAR     37  32  81 W14       29.84R
$$

ARZ004-005-016-241500-
NORTH CENTRAL ARKANSAS

CITY           SKY/WX    TMP DP  RH WIND       PRES   REMARKS
BATESVILLE     SUNNY     45  32  61 W14       29.79R
FLIPPIN        SUNNY     41  28  60 W17       29.79R
MTN HOME       MOSUNNY   41  31  67 W9G21     29.77R
$$

ARZ040-041-241500-
WEST CENTRAL ARKANSAS

CITY           SKY/WX    TMP DP  RH WIND       PRES   REMARKS
MENA           SUNNY     46  32  57 NW7       29.89R
MOUNT IDA      SUNNY     45  33  63 CALM      29.85R
$$

ARZ009-017-025-026-028-241500-
NORTHEAST ARKANSAS

CITY           SKY/WX    TMP DP  RH WIND       PRES   REMARKS
CORNING        FAIR      45  36  70 W16G23    29.74R
JONESBORO      SUNNY     46  36  68 W15       29.78R
NEWPORT        SUNNY     46  36  68 SW10      29.81R
WALNUT RIDGE   SUNNY     45  34  65 SW16      29.76R
BLYTHEVILLE    SUNNY     54  37  52 W14       29.76R
NW BLYTHEVILLE SUNNY     46  37  71 W21       29.75
$$

ARZ022-023-033-042-044-241500-
CENTRAL ARKANSAS

CITY           SKY/WX    TMP DP  RH WIND       PRES   REMARKS
LITTLE ROCK    SUNNY     47  34  60 W7        29.87R
N LITTLE ROCK  SUNNY     45  38  78 W7        29.87R
JACKSONVILLE   SUNNY     45  37  72 W10       29.85R
SEARCY         SUNNY     45  37  73 W7        29.84R
HOT SPRINGS    SUNNY     45  34  65 W6        29.88R
RUSSELLVILLE   SUNNY     44  36  73 VRB7      29.84R
CLINTON        FAIR      41  34  75 CALM      29.83R
$$

ARZ036-241500-
EAST ARKANSAS

CITY           SKY/WX    TMP DP  RH WIND       PRES   REMARKS
WEST MEMPHIS   SUNNY     48  39  71 W8        29.80R
$$

ARZ050-053-066-070-073-241500-
SOUTHWEST ARKANSAS

CITY           SKY/WX    TMP DP  RH WIND       PRES   REMARKS
ARKADELPHIA    FAIR      45  40  82 SW7       29.92R
CAMDEN         SUNNY     46  37  71 E5        29.91R
TEXARKANA      SUNNY     46  37  71 W9        29.94R
EL DORADO      SUNNY     47  38  71 W3        29.92R
DE QUEEN       SUNNY     41  38  89 SW6       29.91R
$$

ARZ056-057-069-241500-
SOUTHEAST ARKANSAS

CITY           SKY/WX    TMP DP  RH WIND       PRES   REMARKS
PINE BLUFF     SUNNY     47  36  65 W8        29.89R
STUTTGART      SUNNY     46  37  71 W10       29.87R
MONTICELLO     SUNNY     49  39  68 W10       29.88R

$$





USA.gov is the U.S. government's official web portal to all federal, state and local government web resources and services.